Index of /img/cosworth/rebuild

[ICO]NameLast modifiedSizeDescription

[DIR]Parent Directory  -
[IMG]2000_netgekocht.jpg16-Oct-2012 15:19 100K
[IMG]2002-10_remklauwenspuiten.jpg16-Oct-2012 15:19 61K
[IMG]2002-11_spuiterij-1.jpg16-Oct-2012 15:19 71K
[IMG]2002-11_spuiterij-2.jpg16-Oct-2012 15:19 106K
[IMG]2002-12_gespoten1.jpg16-Oct-2012 15:19 55K
[IMG]2002-12_gespoten2.jpg16-Oct-2012 15:19 61K
[IMG]2002-12_gespoten3.jpg16-Oct-2012 15:19 57K
[IMG]2002-12_gespoten4.jpg16-Oct-2012 15:19 45K
[IMG]2002-12_gespotengewassen.jpg16-Oct-2012 15:19 82K
[IMG]2002_enginebay.jpg16-Oct-2012 15:19 93K
[IMG]2003-09_lenso-s7.jpg16-Oct-2012 15:19 97K
[IMG]2003-09_threecossies-lenso.jpg16-Oct-2012 15:19 73K
[IMG]2003_03_turbo-chip-samco.jpg16-Oct-2012 15:19 94K
[IMG]2003_interieur.jpg16-Oct-2012 15:19 82K
[IMG]2004-03_mongoose3inch.jpg16-Oct-2012 15:19 109K
[IMG]2004-03_ophanging.jpg16-Oct-2012 15:19 37K
[IMG]2004-05_radiateur.jpg16-Oct-2012 15:19 80K
[IMG]2004-07_nieuwewielkuipachter.jpg16-Oct-2012 15:19 75K
[IMG]2004-07_nieuwewielkuipvoor.jpg16-Oct-2012 15:19 60K
[IMG]2004-07_onderwielkuipachter-b.jpg16-Oct-2012 15:19 59K
[IMG]2004-07_onderwielkuipachter.jpg16-Oct-2012 15:19 68K
[IMG]2004-07_onderwielkuipvoor.jpg16-Oct-2012 15:19 84K
[IMG]2004-08_enginebayhetheadertank.jpg16-Oct-2012 15:19 87K
[IMG]2004-08_total1.jpg16-Oct-2012 15:19 87K
[IMG]2004-08_total2.jpg16-Oct-2012 15:19 88K
[IMG]2004-08_total3.jpg16-Oct-2012 15:19 72K
[IMG]2004-08_total4.jpg16-Oct-2012 15:19 103K
[IMG]2004-09_motorruimtebijnaleeg.jpg16-Oct-2012 15:19 76K
[IMG]2004-09_onderblok.jpg16-Oct-2012 15:19 78K
[IMG]2004-09_oudecilinderkopaf.jpg16-Oct-2012 15:19 56K
[IMG]2004-10_autoambu.jpg16-Oct-2012 15:19 84K
[IMG]2004-10_carterpan.jpg16-Oct-2012 15:19 47K
[IMG]2004-11_nieuwevoorruit.jpg16-Oct-2012 15:19 57K
[IMG]2004-11_samcoschoon.jpg16-Oct-2012 15:19 74K
[IMG]2004-12_liftingeyepolijsten.jpg16-Oct-2012 15:19 73K
[IMG]2004-12_nieuw200block.jpg16-Oct-2012 15:19 52K
[IMG]2004-12_nieuwe4x4kop-4a.jpg16-Oct-2012 15:19 133K
[IMG]2004-12_nieuwe4x4kop-4b.jpg16-Oct-2012 15:19 72K
[IMG]2004-12_nieuwe4x4kop-4c.jpg16-Oct-2012 15:19 126K
[IMG]2004-12_ramairpolijsten.jpg16-Oct-2012 15:19 34K
[IMG]2004-12_rvs-rockercoverbolts.jpg16-Oct-2012 15:19 68K
[IMG]2004_12_uitlaatspruitstuk.jpg16-Oct-2012 15:19 57K
[IMG]2005-01_nieuwewaterpomp.jpg16-Oct-2012 15:19 50K
[IMG]2005-01_polijsten.jpg16-Oct-2012 15:19 53K
[IMG]2005-02_elbow_blasted.jpg16-Oct-2012 15:19 46K
[IMG]2005-02_inletmanifold_blasted.jpg16-Oct-2012 15:19 44K
[IMG]2005-02_motorsteunen_blasted.jpg16-Oct-2012 15:19 46K
[IMG]2005-02_parts.jpg16-Oct-2012 15:19 48K
[IMG]2005-02_plenum_blasted.jpg16-Oct-2012 15:19 39K
[IMG]2005-02_thermostathousing_blasted.jpg16-Oct-2012 15:19 48K
[IMG]2005-02_v-belts1.jpg16-Oct-2012 15:19 48K
[IMG]2005-02_v-belts2.jpg16-Oct-2012 15:19 40K
[IMG]2005-02_v-belts3.jpg16-Oct-2012 15:19 64K
[IMG]2005-04_gespotennastralen.jpg16-Oct-2012 15:19 91K
[IMG]2005-04_intercoolerschoon.JPG16-Oct-2012 15:19 156K
[IMG]2005-04_plenumgespoten1.JPG16-Oct-2012 15:19 102K
[IMG]2005-04_plenumgespoten2.JPG16-Oct-2012 15:19 83K
[IMG]2005-05_slangklemmen.jpg16-Oct-2012 15:19 63K
[IMG]2005-06_coilandcover.jpg16-Oct-2012 15:19 50K
[IMG]2005-06_headertank.jpg16-Oct-2012 15:19 50K
[IMG]2005-06_motorrubbers-bout.jpg16-Oct-2012 15:19 54K
[IMG]2005-06_pistonje2.jpg16-Oct-2012 15:19 32K
[IMG]2005-06_pistonje3.jpg16-Oct-2012 15:19 45K
[IMG]2005-06_pistonje4.jpg16-Oct-2012 15:19 56K
[IMG]2005-06_polishedbracket-eyes.jpg16-Oct-2012 15:19 46K
[IMG]2005-06_spec-r-bracketpolished.JPG16-Oct-2012 15:19 44K
[IMG]2005-06_swirlpot-arpbigend.jpg16-Oct-2012 15:19 70K
[IMG]2005-06_swirlpotfitting.jpg16-Oct-2012 15:19 55K
[IMG]2005-08_bay-links.jpg16-Oct-2012 15:19 79K
[IMG]2005-08_bay-rechts.jpg16-Oct-2012 15:19 97K
[IMG]2005-08_bay-rechtsonder.jpg16-Oct-2012 15:19 97K
[IMG]2005-08_frontempty.jpg16-Oct-2012 15:19 52K
[IMG]2005-08_koplamp-links.jpg16-Oct-2012 15:19 92K
[IMG]2005-08_koplamp-rechts.jpg16-Oct-2012 15:19 99K
[IMG]2005-08_radcomplete.jpg16-Oct-2012 15:19 78K
[IMG]2005-08_wheelsclean.jpg16-Oct-2012 15:19 85K
[IMG]2005-12_200blockoren.jpg16-Oct-2012 15:19 54K
[IMG]2005-12_blingbling.jpg16-Oct-2012 15:19 58K
[IMG]2005-12_brakesafter.jpg16-Oct-2012 15:19 72K
[IMG]2005-12_brakesfull.jpg16-Oct-2012 15:19 58K
[IMG]2005-12_brstofdrukreg.jpg16-Oct-2012 15:19 72K
[IMG]2005-12_cilinderhead.jpg16-Oct-2012 15:19 52K
[IMG]2005-12_klauwachter_after.jpg16-Oct-2012 15:19 88K
[IMG]2005-12_klauwachter_before.jpg16-Oct-2012 15:19 94K
[IMG]2005-12_klauwvoor_before.jpg16-Oct-2012 15:19 68K
[IMG]2005-12_klepstoters.jpg16-Oct-2012 15:19 93K
[IMG]2005-12_mainstudkit.jpg16-Oct-2012 15:19 113K
[IMG]2005-12_oliepomp.jpg16-Oct-2012 15:19 94K
[IMG]2005-12_oppootjes.jpg16-Oct-2012 15:19 95K
[IMG]2005-12_sixpaddle.jpg16-Oct-2012 15:19 87K
[IMG]2005-12_waterpumppulley.jpg16-Oct-2012 15:19 59K
[IMG]2005-12_wheel.jpg16-Oct-2012 15:19 67K
[IMG]2005-12_zuiger.jpg16-Oct-2012 15:19 60K
[IMG]2006-01_044pump.JPG16-Oct-2012 15:19 36K
[IMG]2006-01_19jan1.jpg16-Oct-2012 15:19 85K
[IMG]2006-01_19jan2.jpg16-Oct-2012 15:19 81K
[IMG]2006-01_19jan3.jpg16-Oct-2012 15:19 100K
[IMG]2006-01_19jan4.jpg16-Oct-2012 15:19 100K
[IMG]2006-01_19jan5.jpg16-Oct-2012 15:19 71K
[IMG]2006-01_airfilterpolished.jpg16-Oct-2012 15:19 59K
[IMG]2006-01_blankingplugs.jpg16-Oct-2012 15:19 92K
[IMG]2006-01_brakesfront1.jpg16-Oct-2012 15:19 91K
[IMG]2006-01_brakesfront2.jpg16-Oct-2012 15:19 72K
[IMG]2006-01_brakesrear1.jpg16-Oct-2012 15:19 83K
[IMG]2006-01_brakesrear2.jpg16-Oct-2012 15:19 76K
[IMG]2006-01_brakewheelback.jpg16-Oct-2012 15:19 72K
[IMG]2006-01_brakewheelfront.jpg16-Oct-2012 15:19 72K
[IMG]2006-01_engineparts-hb.jpg16-Oct-2012 15:19 108K
[IMG]2006-01_frontbackin.jpg16-Oct-2012 15:19 91K
[IMG]2006-01_parts19jan.jpg16-Oct-2012 15:19 83K
[IMG]2006-01_rockercover1.jpg16-Oct-2012 15:19 125K
[IMG]2006-01_rockercover2.jpg16-Oct-2012 15:19 107K
[IMG]2006-01_rockercover3.jpg16-Oct-2012 15:19 64K
[IMG]2006-01_rockercover4.jpg16-Oct-2012 15:19 114K
[IMG]2006-04_engbuild1.jpg16-Oct-2012 15:19 108K
[IMG]2006-04_engbuild2.jpg16-Oct-2012 15:19 108K
[IMG]2006-04_engbuild4.jpg16-Oct-2012 15:19 90K
[IMG]2006-04_engbuild5.jpg16-Oct-2012 15:19 64K
[IMG]2006-04_engbuild6.jpg16-Oct-2012 15:19 90K
[IMG]2006-04_engbuild7.jpg16-Oct-2012 15:19 91K
[IMG]2006-04_engbuild8.jpg16-Oct-2012 15:19 91K
[IMG]2006-04_engbuild9.jpg16-Oct-2012 15:19 84K
[IMG]2006-04_engbuild10.jpg16-Oct-2012 15:19 71K
[IMG]2006-04_engbuild11.jpg16-Oct-2012 15:19 69K
[IMG]2006-04_engbuild12.jpg16-Oct-2012 15:19 84K
[IMG]2006-04_engbuild13.jpg16-Oct-2012 15:19 90K
[IMG]2006-04_engbuild14.jpg16-Oct-2012 15:19 85K
[IMG]2006-04_engbuild15.jpg16-Oct-2012 15:19 95K
[IMG]2006-04_engbuild16.jpg16-Oct-2012 15:19 81K
[IMG]2006-04_engmount1.jpg16-Oct-2012 15:19 111K
[IMG]2006-04_engmount2.jpg16-Oct-2012 15:19 131K
[IMG]2006-04_engmount3.jpg16-Oct-2012 15:19 127K
[IMG]2006-04_engmount4.jpg16-Oct-2012 15:19 126K
[IMG]2006-04_engmount5.jpg16-Oct-2012 15:19 125K
[IMG]2006-04_engmount6.jpg16-Oct-2012 15:19 94K
[IMG]2006-04_engmount7.jpg16-Oct-2012 15:19 98K
[IMG]2006-04_engmount8.jpg16-Oct-2012 15:19 83K
[IMG]2006-04_ready1.jpg16-Oct-2012 15:19 82K
[IMG]2006-04_ready2.jpg16-Oct-2012 15:19 111K
[IMG]2006-04_ready3.jpg16-Oct-2012 15:19 118K

Apache/2.2.9 (Debian) PHP/5.3.0-0.dotdeb.8 with Suhosin-Patch mod_ssl/2.2.9 OpenSSL/0.9.8g Server at sierracosworth.nl Port 80